This demonstration page uses our WeatherBlox Daily Observations layout. Learn more.

Left ArrowRight Arrow

38.80484, -77.04692

Hourly Observations for August 27, 2019

Temp ( °F °C ) Dew Point ( °F °C ) Humidity (%) Winds ( mph kmh ) Pressure ( in mb ) Visibility ( mi km ) Precip ( " mm )
12:52 am 00:52 Cloudy 69 20.6 59 15 70 70 E 5 7 30.12 1020 10 16 0.00 0.00
1:52 am 01:52 Cloudy 69 20.6 59 15 70 70 E 3 6 30.11 1020 10 16 0.00 0.00
2:52 am 02:52 Cloudy 68 20 60 15.6 76 76 ENE 6 9 30.09 1019 10 16 0.00 0.00
3:52 am 03:52 Cloudy 67 19.4 60 15.6 79 79 ENE 5 7 30.07 1018 10 16 0.00 0.00
4:52 am 04:52 Cloudy 67 19.4 60 15.6 79 79 ENE 7 11 30.05 1018 10 16 0.00 0.00
5:52 am 05:52 Cloudy 67 19.4 61 16.1 81 81 ENE 5 7 30.05 1018 10 16 0.00 0.00
6:52 am 06:52 Cloudy 67 19.4 61 16.1 81 81 N 5 7 30.07 1018 10 16 0.00 0.00
7:52 am 07:52 Cloudy 68 20 62 16.7 81 81 ENE 5 7 30.08 1019 10 16 0.00 0.00
7:59 am 07:59 Mostly Cloudy 68 20 62 16.7 81 81 ENE 5 7 30.08 1019 10 16 0.00 0.00
8:38 am 08:38 Partly Cloudy 68 20 62 16.7 81 81 ENE 7 11 30.08 1019 10 16 0.00 0.00
8:52 am 08:52 Cloudy 68 20 62 16.7 81 81 ENE 5 7 30.08 1019 10 16 0.00 0.00
9:30 am 09:30 Mostly Cloudy 70 21.1 63 17.2 79 79 ENE 3 6 30.08 1019 10 16 0.00 0.00
9:52 am 09:52 Cloudy with Light Rain 70 21.1 63 17.2 79 79 E 5 7 30.07 1018 10 16 0.00 0.00
10:20 am 10:20 Cloudy 71 21.7 63 17.2 76 76 ENE 7 11 30.07 1018 10 16 0.00 0.00
10:52 am 10:52 Cloudy 72 22.2 63 17.2 73 73 E 5 7 30.06 1018 10 16 0.00 0.00
11:52 am 11:52 Cloudy 74 23.3 64 17.8 71 71 SSE 3 6 30.06 1018 10 16 0.00 0.00
12:13 pm 12:13 Cloudy 74 23.3 64 17.8 71 71 S 3 6 30.06 1018 10 16 0.00 0.00
12:52 pm 12:52 Cloudy 75 23.9 64 17.8 69 69 S 6 9 30.04 1017 10 16 0.00 0.00
1:52 pm 13:52 Cloudy 77 25 63 17.2 62 62 VRB 5 7 30.02 1017 10 16 0.00 0.00
2:52 pm 14:52 Cloudy 78 25.6 63 17.2 60 60 S 9 15 30.00 1016 10 16 0.00 0.00
3:52 pm 15:52 Mostly Cloudy 79 26.1 63 17.2 58 58 SSE 6 9 29.99 1016 10 16 0.00 0.00
4:52 pm 16:52 Mostly Cloudy 79 26.1 63 17.2 58 58 SSW 6 9 29.98 1015 10 16 0.00 0.00
5:52 pm 17:52 Mostly Cloudy 79 26.1 63 17.2 58 58 SSW 5 7 29.96 1015 10 16 0.00 0.00
7:52 pm 19:52 Mostly Cloudy 76 24.4 65 18.3 69 69 ESE 8 13 29.96 1015 10 16 0.00 0.00
8:52 pm 20:52 Partly Cloudy 75 23.9 65 18.3 71 71 ESE 8 13 29.98 1015 10 16 0.00 0.00
9:52 pm 21:52 Partly Cloudy 74 23.3 65 18.3 74 74 ESE 7 11 29.99 1016 10 16 0.00 0.00
10:52 pm 22:52 Mostly Cloudy 74 23.3 64 17.8 71 71 E 7 11 29.98 1015 10 16 0.00 0.00
11:52 pm 23:52 Mostly Cloudy 73 22.8 64 17.8 74 74 Calm 29.97 1015 10 16 0.00 0.00

Powered by AerisWeather